This demonstration page uses our WeatherBlox Daily Observations layout. Learn more.

Left ArrowRight Arrow

Hourly Observations for February 15, 2019

Temp ( °F °C ) Dew Point ( °F °C ) Humidity (%) Winds ( mph kmh ) Pressure ( in mb ) Visibility ( mi km ) Precip ( " mm )
12:52 am 00:52 Mostly Cloudy 5 -15 -3 -19.4 69 69 NNW 12 19 30.19 1022 10 16 0.00 0.00
1:52 am 01:52 Cloudy 6 -14.4 -3 -19.4 66 66 NNW 14 22 30.16 1022 10 16 0.00 0.00
2:52 am 02:52 Cloudy 6 -14.4 -3 -19.4 66 66 N 16 26 30.14 1021 10 16 0.00 0.00
3:52 am 03:52 Cloudy 5 -15 -3 -19.4 69 69 NNW 14 22 30.15 1021 10 16 0.00 0.00
4:52 am 04:52 Cloudy 6 -14.4 -3 -19.4 66 66 N 14 22 30.14 1021 10 16 0.00 0.00
5:52 am 05:52 Cloudy 6 -14.4 -2 -18.9 69 69 N 18 30 30.15 1021 10 16 0.00 0.00
6:52 am 06:52 Cloudy 6 -14.4 -2 -18.9 69 69 NNW 10 17 30.18 1022 10 16 0.00 0.00
7:52 am 07:52 Cloudy 6 -14.4 -3 -19.4 66 66 N 15 24 30.16 1022 10 16 0.00 0.00
8:52 am 08:52 Cloudy 6 -14.4 -2 -18.9 69 69 N 14 22 30.19 1022 10 16 0.00 0.00
9:52 am 09:52 Cloudy 7 -13.9 -2 -18.9 66 66 N 12 19 30.22 1023 10 16 0.00 0.00
10:52 am 10:52 Cloudy 7 -13.9 -2 -18.9 66 66 NNW 13 20 30.24 1024 10 16 0.00 0.00
11:52 am 11:52 Cloudy 9 -12.8 -1 -18.3 64 64 N 12 19 30.24 1024 10 16 0.00 0.00
12:52 pm 12:52 Cloudy 10 -12.2 0 -17.8 63 63 N 12 19 30.21 1023 10 16 0.00 0.00
1:52 pm 13:52 Cloudy 10 -12.2 0 -17.8 63 63 N 13 20 30.19 1023 10 16 0.00 0.00
2:52 pm 14:52 Cloudy 11 -11.7 1 -17.2 64 64 N 12 19 30.19 1022 10 16 0.00 0.00
3:45 pm 15:45 Cloudy with Light Snow 10 -12.2 2 -16.7 69 69 N 13 20 30.24 1024 2 3 0.00 0.03
3:52 pm 15:52 Cloudy with Light Snow 10 -12.2 3 -16.1 73 73 N 14 22 30.19 1022 1 2 0.00 0.03
4:00 pm 16:00 Mostly Cloudy with Light Snow 10 -12.2 3 -16.1 73 73 N 15 24 30.24 1024 1 1 0.00 0.03
4:21 pm 16:21 Cloudy with Light Snow 10 -12.2 4 -15.6 76 76 N 14 22 30.24 1024 1 2 0.01 0.25
4:52 pm 16:52 Cloudy with Light Snow 11 -11.7 5 -15 77 77 NNW 12 19 30.19 1023 1 2 0.02 0.51
5:05 pm 17:05 Cloudy with Light Snow 11 -11.7 5 -15 77 77 N 9 15 30.23 1024 2 3 0.00 0.03
5:12 pm 17:12 Cloudy with Light Snow 11 -11.7 5 -15 77 77 NNW 10 17 30.23 1024 3 5 0.00 0.03
5:52 pm 17:52 Cloudy with Light Snow 11 -11.7 6 -14.4 81 81 N 8 13 30.19 1022 5 8 0.01 0.25
6:52 pm 18:52 Cloudy with Light Snow 12 -11.1 5 -15 73 73 NW 6 9 30.21 1023 9 14 0.00 0.03
7:52 pm 19:52 Mostly Cloudy 12 -11.1 4 -15.6 70 70 NW 6 9 30.21 1023 10 16 0.00 0.03
8:52 pm 20:52 Mostly Cloudy 12 -11.1 4 -15.6 70 70 NW 6 9 30.22 1023 10 16 0.00 0.00
9:52 pm 21:52 Mostly Cloudy 11 -11.7 3 -16.1 70 70 NW 5 7 30.22 1024 10 16 0.00 0.00
10:52 pm 22:52 Mostly Cloudy 11 -11.7 5 -15 77 77 Calm 30.23 1024 10 16 0.00 0.00
11:52 pm 23:52 Cloudy 12 -11.1 5 -15 73 73 NE 3 6 30.22 1024 10 16 0.00 0.00

Powered by AerisWeather